Date,TemperatureHighF,TemperatureAvgF,TemperatureLowF,DewpointHighF,DewpointAvgF,DewpointLowF,HumidityHigh,HumidityAvg,HumidityLow,PressureMaxIn,PressureMinIn,WindSpeedMaxMPH,WindSpeedAvgMPH,GustSpeedMaxMPH,PrecipitationSumIn
2013-3-13,52.5,43.4,35.4,28.4,26.8,25.5,72,53,38,29.65,29.58,6,1,0,0.00
2013-3-14,38.5,31.4,27.5,28.6,18.1,12.0,89,59,38,29.71,29.63,7,3,0,0.00
2013-3-15,42.4,32.6,24.1,30.2,18.9,12.0,78,58,36,29.74,29.52,11,4,0,0.00
2013-3-16,41.5,34.0,27.7,28.4,21.2,13.9,85,61,34,29.70,29.55,6,2,0,0.00
2013-3-17,39.9,30.7,23.5,24.2,12.9,7.6,73,49,27,30.13,29.71,7,2,0,0.00
2013-3-18,37.4,28.4,20.1,28.1,11.1,3.1,98,52,28,30.26,29.96,6,2,0,0.00
2013-3-19,37.0,32.4,28.8,35.2,31.4,27.9,99,96,90,29.95,29.48,5,2,0,0.61
2013-3-20,44.8,35.7,27.0,28.8,19.6,16.7,89,53,36,29.64,29.57,13,4,0,0.15
2013-3-21,39.9,31.8,27.7,24.2,19.2,12.4,80,61,37,29.65,29.43,7,2,0,0.00
2013-3-22,42.8,34.9,25.5,23.0,19.8,12.4,71,54,42,29.63,29.50,7,3,0,0.00
2013-3-23,47.8,37.3,30.2,26.2,21.2,18.3,71,53,34,29.69,29.56,11,4,0,0.00
2013-3-24,48.2,37.7,27.3,26.0,22.7,18.7,74,55,40,29.72,29.54,7,2,0,0.00
2013-3-25,45.5,38.3,31.3,29.2,26.0,23.0,72,61,47,29.57,29.28,9,4,0,0.00
2013-3-26,52.3,41.1,32.7,30.5,25.6,19.1,75,55,35,29.65,29.38,6,1,0,0.00
2013-3-27,57.4,42.8,30.2,29.3,24.6,19.4,67,50,28,29.74,29.63,7,2,0,0.00
2013-3-28,53.1,43.5,36.0,35.0,31.5,27.0,81,63,45,29.89,29.73,5,1,0,0.00
2013-3-29,57.7,46.3,36.3,33.3,30.6,27.6,74,56,36,29.92,29.84,5,2,0,0.19
2013-3-30,59.4,46.2,33.6,32.4,26.2,20.2,81,49,25,29.95,29.86,7,1,0,0.00
2013-3-31,56.8,44.0,28.8,42.2,29.7,21.6,99,60,33,29.95,29.49,10,3,0,0.45
2013-4-1,63.3,45.7,32.5,46.5,37.7,16.6,99,76,46,29.69,29.38,10,3,0,0.06
2013-4-2,44.2,34.9,27.1,20.4,15.1,10.2,69,46,28,29.84,29.68,12,3,0,0.00
2013-4-3,47.8,36.1,27.9,18.4,15.2,11.9,58,43,27,30.08,29.83,9,3,0,0.00
2013-4-4,57.2,40.1,28.0,31.0,21.1,13.6,77,49,23,30.19,29.91,7,3,0,0.00
2013-4-5,65.7,46.3,37.2,31.8,26.1,19.6,80,49,19,29.90,29.51,7,2,0,0.00
2013-4-6,54.1,40.4,31.3,23.7,13.4,7.8,64,36,18,30.14,29.77,9,2,0,0.00
2013-4-7,56.1,44.0,31.5,42.0,32.5,16.9,93,66,45,30.14,29.84,10,3,0,0.00
2013-4-8,73.4,55.4,39.9,45.1,40.8,37.7,99,64,28,29.90,29.79,6,2,0,0.00
2013-4-9,79.5,62.8,48.2,52.9,46.3,40.2,96,59,33,29.86,29.71,11,2,0,0.00
2013-4-10,69.4,56.2,48.0,54.5,49.6,40.1,99,80,56,29.81,29.66,6,2,0,0.38
2013-4-11,50.0,49.6,49.3,49.7,49.4,49.0,99,99,99,29.69,29.64,4,0,0,0.00
2013-4-12,42.4,39.1,36.5,38.9,35.7,-36.7,99,90,3,29.94,29.59,7,4,0,0.70
2013-4-13,56.7,46.4,35.4,40.3,36.7,35.0,99,71,46,29.76,29.60,5,2,0,0.02
2013-4-14,55.0,46.0,37.2,38.9,32.2,25.8,88,60,40,30.06,29.76,6,2,0,0.00
2013-4-15,59.7,45.4,34.2,34.2,30.5,25.8,78,57,35,30.22,30.05,7,2,0,0.00
2013-4-16,64.4,50.9,36.5,52.4,44.4,32.7,93,79,57,30.22,29.93,9,3,0,0.00
2013-4-17,71.1,58.4,49.8,53.3,39.4,30.7,94,53,29,30.14,29.93,6,2,0,0.00
2013-4-18,62.4,52.4,39.9,46.9,38.2,30.4,89,61,33,30.22,29.96,7,3,0,0.00
2013-4-19,70.5,60.3,50.9,62.5,57.8,46.9,99,92,75,29.97,29.49,11,4,0,0.00
2013-4-20,62.2,51.7,40.1,62.0,38.7,25.7,99,66,31,30.10,29.48,10,3,0,0.53
2013-4-21,54.0,43.3,32.4,31.6,22.6,18.1,70,46,29,30.47,30.11,10,2,0,0.00
2013-4-22,58.6,46.0,33.4,34.3,30.3,24.6,89,58,31,30.53,30.36,10,3,0,0.00
2013-4-23,43.9,41.2,37.0,37.9,34.8,29.5,92,78,66,30.37,30.18,6,4,0,0.00
2013-4-24,54.9,47.2,43.9,48.6,42.4,37.8,95,84,74,30.18,29.68,6,4,0,0.00
2013-4-25,63.7,54.1,44.6,51.2,35.6,26.6,99,54,25,30.10,29.68,7,2,0,0.00
2013-4-26,67.5,55.8,35.6,34.1,30.9,28.1,75,42,25,30.20,30.10,7,2,0,0.00
2013-4-27,68.9,62.9,50.0,45.2,34.7,30.8,70,37,26,30.23,30.11,6,2,0,0.00
2013-4-28,68.9,56.2,40.6,43.9,38.2,31.5,97,55,33,30.16,30.05,8,3,0,0.00
2013-4-29,58.3,58.3,58.3,31.5,31.5,31.5,36,36,36,30.05,30.05,3,3,0,0.00
2013-4-30,58.3,58.3,58.3,31.5,31.5,31.5,36,36,36,30.05,30.05,3,3,0,0.00
2013-5-1,58.3,58.3,58.3,31.5,31.5,31.5,36,36,36,30.05,30.05,3,3,0,0.00
2013-5-2,58.3,58.3,58.3,31.5,31.5,31.5,36,36,36,30.05,30.05,3,3,0,0.00
2013-5-3,58.3,58.3,58.3,31.5,31.5,31.5,36,36,36,30.05,30.05,3,3,0,0.00
2013-5-4,58.3,58.3,58.3,31.5,31.5,31.5,36,36,36,30.05,30.05,3,3,0,0.00
2013-5-5,58.3,58.3,58.3,31.5,31.5,31.5,36,36,36,30.05,30.05,3,3,0,0.00
2013-5-6,58.3,58.3,58.3,31.5,31.5,31.5,36,36,36,30.05,30.05,3,3,0,0.00
2013-5-7,58.3,58.3,58.3,31.5,31.5,31.5,36,36,36,30.05,30.05,3,3,0,0.00
2013-5-8,58.3,58.3,58.3,31.5,31.5,31.5,36,36,36,30.05,30.05,3,3,0,0.00
2013-5-9,58.3,58.3,58.3,31.5,31.5,31.5,36,36,36,30.05,30.05,3,3,0,0.00
2013-5-10,58.3,58.3,58.3,31.5,31.5,31.5,36,36,36,30.05,30.05,3,3,0,0.00
2013-5-11,61.9,58.9,58.3,61.6,40.3,31.5,99,55,36,30.05,29.51,4,2,0,0.01
2013-5-12,69.6,59.8,49.5,58.9,48.2,28.1,99,70,32,29.70,29.44,9,2,0,0.04
2013-5-13,55.6,49.1,39.4,35.1,31.2,27.6,73,51,36,29.91,29.70,8,3,0,0.00
2013-5-14,59.2,49.8,37.9,34.9,31.8,28.5,78,52,33,29.91,29.83,4,1,0,0.00
2013-5-15,64.6,51.4,34.3,53.7,44.0,32.5,96,77,44,29.91,29.52,6,1,0,0.00
2013-5-16,84.9,66.6,47.7,55.6,46.1,39.3,99,56,22,29.65,29.51,9,2,0,0.00
2013-5-17,71.2,62.5,52.3,45.0,41.3,38.0,67,47,32,30.04,29.65,5,1,0,0.00
2013-5-18,71.4,59.0,44.8,50.8,45.8,40.1,89,63,42,30.15,30.04,7,1,0,0.00
2013-5-19,59.9,54.9,49.8,56.1,53.0,47.4,99,93,81,30.18,30.02,3,0,0,0.21
2013-5-20,82.0,67.0,55.2,67.7,61.8,54.9,99,86,56,30.01,29.76,6,1,0,0.02
2013-5-21,87.8,74.6,61.3,72.7,67.4,61.1,99,80,58,29.79,29.63,7,2,0,0.00
2013-5-22,75.4,64.2,55.0,70.2,61.9,54.4,99,93,81,29.79,29.66,7,2,0,0.26
2013-5-23,69.6,65.9,63.7,68.8,65.5,63.4,99,99,94,29.73,29.60,4,1,0,1.50
2013-5-24,65.8,57.6,44.8,65.6,56.5,44.5,99,96,84,29.70,29.48,6,2,0,1.05
2013-5-25,46.8,44.6,43.9,46.5,43.8,40.6,99,97,87,29.71,29.64,6,2,0,0.54
2013-5-26,60.8,51.4,43.9,43.6,41.3,40.0,90,70,48,29.98,29.67,10,3,0,0.00
2013-5-27,74.8,59.8,43.7,45.5,41.1,37.4,92,54,28,30.03,29.93,5,2,0,0.00
2013-5-28,73.6,58.3,45.5,57.7,49.4,42.4,99,75,41,30.06,29.98,5,1,0,0.00
2013-5-29,79.5,65.2,56.5,70.5,62.8,56.2,99,92,74,29.99,29.81,5,1,0,0.68
2013-5-30,90.0,76.8,62.1,72.8,67.0,61.8,99,75,49,29.93,29.85,5,1,0,0.02
2013-5-31,93.0,79.7,66.6,73.5,67.2,62.2,98,68,38,29.94,29.80,7,1,0,0.00
2013-6-1,90.3,78.6,67.6,71.0,66.8,61.8,84,68,49,29.84,29.73,5,2,0,0.00
2013-6-2,85.6,75.3,66.0,71.9,67.1,63.8,93,76,62,29.74,29.58,6,2,0,0.00
2013-6-3,77.7,68.7,61.5,69.3,64.4,50.1,99,87,64,29.71,29.61,4,1,0,0.97
2013-6-4,73.4,63.1,51.1,49.9,46.2,43.0,75,55,39,29.93,29.72,5,2,0,0.00
2013-6-5,73.4,63.6,50.4,52.6,48.5,43.4,84,59,44,30.04,29.93,4,1,0,0.00
2013-6-6,71.4,60.4,50.5,58.5,52.5,47.3,93,76,58,30.00,29.92,8,1,0,0.00
2013-6-7,59.9,57.4,54.0,59.6,57.2,53.7,99,99,99,29.82,29.56,4,1,0,5.53
2013-6-8,76.3,64.4,51.8,65.2,58.9,51.5,99,84,64,29.87,29.45,5,2,0,0.87
2013-6-9,79.2,69.2,57.2,61.4,58.1,55.8,96,70,47,30.01,29.87,5,1,0,0.00
2013-6-10,72.1,63.3,58.1,64.5,60.0,56.7,99,89,74,30.02,29.76,5,1,0,1.71
2013-6-11,71.4,63.4,58.6,68.6,61.8,58.1,98,95,85,29.75,29.39,8,1,0,1.06
2013-6-12,73.2,65.9,58.6,60.0,53.6,49.6,93,66,49,29.68,29.46,7,2,0,0.00
2013-6-13,58.3,55.2,51.6,55.7,53.2,50.4,97,93,78,29.66,29.42,5,2,0,2.41
2013-6-14,72.3,58.7,50.2,56.8,52.7,49.4,97,82,49,29.66,29.41,5,2,0,1.21
2013-6-15,78.8,68.9,57.6,56.5,52.4,47.3,87,59,36,29.80,29.66,6,1,0,0.00
2013-6-16,77.9,67.3,53.6,62.8,55.9,49.9,88,68,47,29.81,29.56,7,1,0,0.00
2013-6-17,83.8,71.2,62.8,63.7,60.5,57.6,88,71,48,29.75,29.66,5,1,0,0.00
2013-6-18,83.1,67.1,59.5,65.8,60.5,56.6,95,81,54,29.75,29.64,5,1,0,1.04
2013-6-19,75.6,64.2,53.6,57.7,51.0,43.4,95,66,37,30.00,29.74,5,1,0,0.02
2013-6-20,78.6,66.1,49.8,57.0,51.3,43.9,86,61,42,30.10,30.00,5,1,0,0.00
2013-6-21,82.8,71.2,58.8,63.3,56.7,51.4,78,61,50,30.11,30.04,7,2,0,0.00
2013-6-22,83.1,72.0,60.8,61.4,56.4,51.3,77,59,43,30.08,29.96,6,2,0,0.00
2013-6-23,88.9,76.4,64.0,67.6,62.4,53.3,80,63,48,30.01,29.87,6,2,0,0.00
2013-6-24,91.8,78.2,67.6,70.8,67.7,61.6,92,73,49,29.88,29.75,11,1,0,0.00
2013-6-25,90.1,77.2,67.1,70.7,67.6,64.0,92,75,50,29.82,29.60,6,1,0,0.00
2013-6-26,85.3,76.5,70.5,71.2,68.4,66.8,93,77,58,29.67,29.58,4,1,0,0.00
2013-6-27,80.2,72.6,67.6,71.0,67.6,65.2,93,85,70,29.66,29.47,6,1,0,0.64
2013-6-28,79.3,71.9,15.6,72.8,69.0,14.4,95,91,75,29.45,29.31,7,2,0,1.21
2013-6-29,82.0,73.7,67.8,71.2,68.2,66.6,96,84,63,29.54,29.32,5,1,0,0.00
2013-6-30,82.9,74.7,71.1,71.9,69.4,67.5,91,84,67,29.76,29.55,5,1,0,0.00
2013-7-1,75.6,72.8,71.4,72.6,70.7,69.0,94,93,89,29.90,29.76,5,0,0,0.23
2013-7-2,80.8,74.9,71.4,73.5,71.3,69.6,95,89,78,30.01,29.90,4,1,0,0.01
2013-7-3,85.5,77.4,71.2,73.2,70.7,68.3,92,80,66,30.07,30.00,6,2,0,0.00
2013-7-4,88.7,80.8,72.3,74.6,71.5,69.3,93,75,59,30.07,29.96,5,1,0,0.00
2013-7-5,90.7,82.0,71.4,73.8,71.1,68.3,90,71,57,30.03,29.90,5,1,0,0.00
2013-7-6,90.9,82.1,73.0,74.0,71.0,68.9,87,70,56,29.94,29.84,6,2,0,0.00
2013-7-7,93.4,83.0,73.0,75.8,72.0,68.6,88,71,57,29.88,29.73,5,1,0,0.00
2013-7-8,88.9,80.8,71.8,71.3,68.3,63.6,82,66,56,29.87,29.76,6,2,0,0.00
2013-7-9,84.0,75.7,68.7,71.0,68.0,64.7,88,77,64,29.92,29.83,5,1,0,0.00
2013-7-10,84.7,77.3,72.7,74.4,71.3,69.2,90,82,70,29.86,29.63,4,1,0,0.00
2013-7-11,83.5,77.4,71.1,73.4,68.0,61.3,93,74,60,29.76,29.65,2,0,0,0.06
2013-7-12,81.3,73.3,68.5,66.2,61.0,55.9,74,65,60,30.00,29.76,6,2,0,0.00
2013-7-13,77.4,70.7,64.4,71.1,64.6,56.6,90,81,67,30.12,30.00,3,0,0,0.05
2013-7-14,90.1,80.9,72.0,74.0,71.7,69.5,92,75,57,30.15,30.04,5,1,0,0.63
2013-7-15,93.0,81.3,71.8,78.3,71.0,66.9,94,73,49,30.06,29.95,4,0,0,0.00
2013-7-16,93.2,82.8,70.9,71.8,67.9,63.7,81,62,45,30.02,29.95,4,0,0,0.00
2013-7-17,93.4,83.0,70.5,73.6,69.4,65.1,84,65,50,30.03,29.87,4,1,0,0.00
2013-7-18,95.0,85.2,75.4,76.1,71.6,66.2,77,64,52,29.88,29.78,4,1,0,0.00
2013-7-19,94.5,86.1,76.8,77.0,73.2,69.8,81,66,54,29.78,29.58,6,2,0,0.00
2013-7-20,91.2,82.8,73.2,74.8,70.5,62.6,83,67,55,29.67,29.52,6,2,0,0.00
2013-7-21,84.9,76.6,66.7,67.6,63.8,58.8,84,65,51,29.81,29.67,4,0,0,0.00
2013-7-22,82.0,74.5,66.6,71.6,66.9,61.8,90,77,65,29.82,29.68,4,1,0,0.00
2013-7-23,86.5,76.2,72.1,75.0,70.5,68.0,94,83,58,29.67,29.38,5,1,0,0.84
2013-7-24,85.6,75.8,64.9,70.3,64.7,53.3,91,70,57,29.77,29.44,4,0,0,0.00
2013-7-25,64.4,60.9,57.9,56.9,52.0,46.3,89,73,63,29.92,29.77,5,2,0,0.02
2013-7-26,78.6,65.9,59.7,66.3,60.9,56.5,93,84,66,29.88,29.80,2,0,0,0.37
2013-7-27,81.3,72.0,63.5,66.0,62.4,60.2,93,74,50,29.88,29.81,4,1,0,0.00
2013-7-28,80.4,71.4,63.7,66.7,63.7,60.4,92,77,58,29.84,29.77,4,0,0,0.00
2013-7-29,84.7,74.1,64.8,69.3,63.7,53.9,91,72,49,29.91,29.78,5,1,0,0.00
2013-7-30,82.8,71.5,61.2,60.4,56.8,52.0,75,61,42,29.97,29.90,6,1,0,0.00
2013-7-31,79.3,70.8,59.0,63.0,58.6,54.8,86,66,49,29.98,29.87,4,0,0,0.00
2013-8-1,78.3,67.4,62.4,65.6,62.1,57.8,93,83,58,29.88,29.67,3,0,0,0.64
2013-8-2,83.8,72.6,64.9,70.9,62.7,59.5,94,73,46,29.71,29.61,5,1,0,0.49
2013-8-3,78.6,68.9,63.3,64.6,60.8,56.5,92,76,60,29.72,29.64,6,1,0,0.04
2013-8-4,81.5,68.0,56.8,61.0,56.9,50.8,92,70,45,29.77,29.65,5,1,0,0.00
2013-8-5,78.6,66.3,56.5,56.6,50.4,46.3,81,59,38,29.88,29.76,6,1,0,0.00
2013-8-6,77.4,65.8,52.3,57.7,53.8,47.8,85,66,49,29.97,29.88,4,1,0,0.00
2013-8-7,76.5,67.6,57.6,61.4,58.0,53.4,87,72,55,30.01,29.92,5,1,0,0.00
2013-8-8,77.9,72.2,68.7,70.5,67.3,61.2,91,85,77,29.92,29.84,5,1,0,0.02
2013-8-9,76.1,73.3,71.4,74.6,71.1,67.7,96,93,88,29.85,29.60,4,1,0,1.72
2013-8-10,81.5,72.4,60.8,70.8,62.8,53.2,97,74,52,29.89,29.66,7,1,0,0.01
2013-8-11,77.7,67.3,54.0,58.7,54.2,48.1,82,64,47,29.95,29.85,5,1,0,0.00
2013-8-12,79.7,70.7,61.7,61.7,58.5,53.9,87,67,44,29.87,29.76,4,0,0,0.00
2013-8-13,75.0,69.3,64.8,69.1,64.4,58.4,92,85,70,29.76,29.51,3,0,0,0.01
2013-8-14,72.9,65.3,55.6,61.9,53.5,49.8,88,67,51,29.84,29.54,7,2,0,0.00
2013-8-15,58.3,56.1,54.0,50.2,49.4,48.6,82,78,74,29.89,29.84,3,0,0,0.00
2013-12-15,27.9,27.4,27.1,21.3,20.7,20.3,76,76,75,29.56,29.56,2,1,0,0.00